Location: Poughquag
(41.6090°N, 73.6820°W)
Time: 12:43:34
(UTC-04:00)

Transit 2A - Pass Details

Date: 04 June 2020
Orbit: 592 x 967 km, 66.7° (Epoch: 06 July)

Event Time Altitude Azimuth Distance (km) Brightness Sun altitude
Rises 21:08:32 0° 334° (NNW) 3,550 10.8 -7.4°
Reaches altitude 10° 21:11:08 10° 340° (NNW) 2,644 9.8 -7.8°
Maximum altitude 21:17:07 45° 53° (NE) 1,284 7.1 -8.7°
Enters shadow 21:22:54 11° 124° (SE) 2,602 8.1 -9.5°
Drops below altitude 10° 21:23:11 10° 125° (SE) 2,698 - -9.5°
Sets 21:25:52 0° 131° (SE) 3,630 - -9.9°
